Year,Month,Day,Hour,Minute,Value (Times are PST for temperature in C)
2012,05,23,00,00,8.30
2012,05,23,00,01,8.30
2012,05,23,00,02,8.30
2012,05,23,00,03,8.20
2012,05,23,00,04,8.20
2012,05,23,00,05,8.20
2012,05,23,00,06,8.20
2012,05,23,00,07,8.20
2012,05,23,00,08,8.20
2012,05,23,00,09,8.20
2012,05,23,00,10,8.20
2012,05,23,00,11,8.20
2012,05,23,00,12,8.20
2012,05,23,00,13,8.20
2012,05,23,00,14,8.20
2012,05,23,00,15,8.20
2012,05,23,00,16,8.20
2012,05,23,00,17,8.10
2012,05,23,00,18,8.10
2012,05,23,00,19,8.10
2012,05,23,00,20,8.10
2012,05,23,00,21,8.10
2012,05,23,00,22,8.10
2012,05,23,00,23,8.00
2012,05,23,00,24,8.00
2012,05,23,00,25,8.00
2012,05,23,00,26,8.00
2012,05,23,00,27,7.90
2012,05,23,00,28,7.90
2012,05,23,00,29,7.90
2012,05,23,00,30,7.90
2012,05,23,00,31,7.90
2012,05,23,00,32,7.80
2012,05,23,00,33,7.80
2012,05,23,00,34,7.80
2012,05,23,00,35,7.80
2012,05,23,00,36,7.80
2012,05,23,00,37,7.80
2012,05,23,00,38,7.70
2012,05,23,00,39,7.70
2012,05,23,00,40,7.70
2012,05,23,00,41,7.70
2012,05,23,00,42,7.70
2012,05,23,00,43,7.60
2012,05,23,00,44,7.60
2012,05,23,00,45,7.60
2012,05,23,00,46,7.60
2012,05,23,00,47,7.60
2012,05,23,00,48,7.60
2012,05,23,00,49,7.60
2012,05,23,00,50,7.60
2012,05,23,00,51,7.60
2012,05,23,00,52,7.60
2012,05,23,00,53,7.60
2012,05,23,00,54,7.60
2012,05,23,00,55,7.60
2012,05,23,00,56,7.50
2012,05,23,00,57,7.50
2012,05,23,00,58,7.50
2012,05,23,00,59,7.50
2012,05,23,01,00,7.50
2012,05,23,01,01,7.50
2012,05,23,01,02,7.40
2012,05,23,01,03,7.40
2012,05,23,01,04,7.40
2012,05,23,01,05,7.40
2012,05,23,01,06,7.40
2012,05,23,01,07,7.40
2012,05,23,01,08,7.40
2012,05,23,01,09,7.30
2012,05,23,01,10,7.30
2012,05,23,01,11,7.30
2012,05,23,01,12,7.30
2012,05,23,01,13,7.30
2012,05,23,01,14,7.30
2012,05,23,01,15,7.30
2012,05,23,01,16,7.30
2012,05,23,01,17,7.30
2012,05,23,01,18,7.30
2012,05,23,01,19,7.20
2012,05,23,01,20,7.20
2012,05,23,01,21,7.20
2012,05,23,01,22,7.20
2012,05,23,01,23,7.20
2012,05,23,01,24,7.20
2012,05,23,01,25,7.20
2012,05,23,01,26,7.20
2012,05,23,01,27,7.20
2012,05,23,01,28,7.20
2012,05,23,01,29,7.20
2012,05,23,01,30,7.20
2012,05,23,01,31,7.20
2012,05,23,01,32,7.20
2012,05,23,01,33,7.10
2012,05,23,01,34,7.10
2012,05,23,01,35,7.10
2012,05,23,01,36,7.10
2012,05,23,01,37,7.10
2012,05,23,01,38,7.10
2012,05,23,01,39,7.10
2012,05,23,01,40,7.10
2012,05,23,01,41,7.10
2012,05,23,01,42,7.00
2012,05,23,01,43,7.00
2012,05,23,01,44,7.00
2012,05,23,01,45,7.10
2012,05,23,01,46,7.10
2012,05,23,01,47,7.10
2012,05,23,01,48,7.10
2012,05,23,01,49,7.10
2012,05,23,01,50,7.10
2012,05,23,01,51,7.10
2012,05,23,01,52,7.10
2012,05,23,01,53,7.10
2012,05,23,01,54,7.10
2012,05,23,01,55,7.10
2012,05,23,01,56,7.10
2012,05,23,01,57,7.10
2012,05,23,01,58,7.10
2012,05,23,01,59,7.10
2012,05,23,02,00,7.20
2012,05,23,02,01,7.20
2012,05,23,02,02,7.20
2012,05,23,02,03,7.20
2012,05,23,02,04,7.20
2012,05,23,02,05,7.20
2012,05,23,02,06,7.20
2012,05,23,02,07,7.20
2012,05,23,02,08,7.20
2012,05,23,02,09,7.20
2012,05,23,02,10,7.30
2012,05,23,02,11,7.30
2012,05,23,02,12,7.30
2012,05,23,02,13,7.30
2012,05,23,02,14,7.30
2012,05,23,02,15,7.30
2012,05,23,02,16,7.30
2012,05,23,02,17,7.40
2012,05,23,02,18,7.40
2012,05,23,02,19,7.40
2012,05,23,02,20,7.40
2012,05,23,02,21,7.40
2012,05,23,02,22,7.40
2012,05,23,02,23,7.40
2012,05,23,02,24,7.40
2012,05,23,02,25,7.40
2012,05,23,02,26,7.40
2012,05,23,02,27,7.50
2012,05,23,02,28,7.50
2012,05,23,02,29,7.50
2012,05,23,02,30,7.50
2012,05,23,02,31,7.60
2012,05,23,02,32,7.60
2012,05,23,02,33,7.60
2012,05,23,02,34,7.70
2012,05,23,02,35,7.80
2012,05,23,02,36,7.80
2012,05,23,02,37,7.80
2012,05,23,02,38,7.90
2012,05,23,02,39,7.90
2012,05,23,02,40,7.90
2012,05,23,02,41,8.00
2012,05,23,02,42,8.00
2012,05,23,02,43,8.10
2012,05,23,02,44,8.10
2012,05,23,02,45,8.10
2012,05,23,02,46,8.20
2012,05,23,02,47,8.20
2012,05,23,02,48,8.30
2012,05,23,02,49,8.30
2012,05,23,02,50,8.30
2012,05,23,02,51,8.40
2012,05,23,02,52,8.40
2012,05,23,02,53,8.40
2012,05,23,02,54,8.50
2012,05,23,02,55,8.60
2012,05,23,02,56,8.70
2012,05,23,02,57,8.80
2012,05,23,02,58,8.90
2012,05,23,02,59,9.00
2012,05,23,03,00,9.10
2012,05,23,03,01,9.10
2012,05,23,03,02,9.20
2012,05,23,03,03,9.20
2012,05,23,03,04,9.20
2012,05,23,03,05,9.30
2012,05,23,03,06,9.30
2012,05,23,03,07,9.30
2012,05,23,03,08,9.30
2012,05,23,03,09,9.30
2012,05,23,03,10,9.40
2012,05,23,03,11,9.40
2012,05,23,03,12,9.40
2012,05,23,03,13,9.40
2012,05,23,03,14,9.40
2012,05,23,03,15,9.50
2012,05,23,03,16,9.50
2012,05,23,03,17,9.50
2012,05,23,03,18,9.50
2012,05,23,03,19,9.50
2012,05,23,03,20,9.50
2012,05,23,03,21,9.50
2012,05,23,03,22,9.50
2012,05,23,03,23,9.40
2012,05,23,03,24,9.40
2012,05,23,03,25,9.40
2012,05,23,03,26,9.40
2012,05,23,03,27,9.40
2012,05,23,03,28,9.40
2012,05,23,03,29,9.50
2012,05,23,03,30,9.50
2012,05,23,03,31,9.50
2012,05,23,03,32,9.50
2012,05,23,03,33,9.60
2012,05,23,03,34,9.60
2012,05,23,03,35,9.60
2012,05,23,03,36,9.60
2012,05,23,03,37,9.70
2012,05,23,03,38,9.70
2012,05,23,03,39,9.80
2012,05,23,03,40,9.80
2012,05,23,03,41,9.80
2012,05,23,03,42,9.80
2012,05,23,03,43,9.90
2012,05,23,03,44,9.90
2012,05,23,03,45,9.90
2012,05,23,03,46,9.90
2012,05,23,03,47,9.90
2012,05,23,03,48,10.00
2012,05,23,03,49,10.00
2012,05,23,03,50,10.00
2012,05,23,03,51,10.00
2012,05,23,03,52,10.00
2012,05,23,03,53,10.00
2012,05,23,03,54,10.00
2012,05,23,03,55,10.00
2012,05,23,03,56,10.00
2012,05,23,03,57,10.00
2012,05,23,03,58,9.90
2012,05,23,03,59,9.90
2012,05,23,04,00,9.90
2012,05,23,04,01,9.90
2012,05,23,04,02,9.90
2012,05,23,04,03,9.90
2012,05,23,04,04,9.90
2012,05,23,04,05,9.90
2012,05,23,04,06,9.90
2012,05,23,04,07,9.90
2012,05,23,04,08,9.90
2012,05,23,04,09,9.90
2012,05,23,04,10,9.90
2012,05,23,04,11,9.90
2012,05,23,04,12,9.90
2012,05,23,04,13,9.90
2012,05,23,04,14,10.00
2012,05,23,04,15,10.00
2012,05,23,04,16,10.00
2012,05,23,04,17,10.00
2012,05,23,04,18,10.00
2012,05,23,04,19,10.10
2012,05,23,04,20,10.10
2012,05,23,04,21,10.10
2012,05,23,04,22,10.10
2012,05,23,04,23,10.10
2012,05,23,04,24,10.10
2012,05,23,04,25,10.00
2012,05,23,04,26,10.00
2012,05,23,04,27,10.00
2012,05,23,04,28,10.00
2012,05,23,04,29,10.00
2012,05,23,04,30,10.00
2012,05,23,04,31,10.00
2012,05,23,04,32,10.00
2012,05,23,04,33,10.00
2012,05,23,04,34,10.00
2012,05,23,04,35,10.00
2012,05,23,04,36,10.00
2012,05,23,04,37,10.00
2012,05,23,04,38,9.90
2012,05,23,04,39,9.90
2012,05,23,04,40,9.90
2012,05,23,04,41,9.90
2012,05,23,04,42,9.90
2012,05,23,04,43,9.90
2012,05,23,04,44,9.90
2012,05,23,04,45,9.90
2012,05,23,04,46,9.90
2012,05,23,04,47,9.90
2012,05,23,04,48,9.90
2012,05,23,04,49,10.00
2012,05,23,04,50,10.00
2012,05,23,04,51,10.00
2012,05,23,04,52,10.00
2012,05,23,04,53,10.10
2012,05,23,04,54,10.10
2012,05,23,04,55,10.10
2012,05,23,04,56,10.10
2012,05,23,04,57,10.10
2012,05,23,04,58,10.10
2012,05,23,04,59,10.10
2012,05,23,05,00,10.20
2012,05,23,05,01,10.20
2012,05,23,05,02,10.20
2012,05,23,05,03,10.30
2012,05,23,05,04,10.30
2012,05,23,05,05,10.30
2012,05,23,05,06,10.30
2012,05,23,05,07,10.30
2012,05,23,05,08,10.30
2012,05,23,05,09,10.20
2012,05,23,05,10,10.20
2012,05,23,05,11,10.20
2012,05,23,05,12,10.20
2012,05,23,05,13,10.20
2012,05,23,05,14,10.20
2012,05,23,05,15,10.20
2012,05,23,05,16,10.10
2012,05,23,05,17,10.10
2012,05,23,05,18,10.10
2012,05,23,05,19,10.10
2012,05,23,05,20,10.10
2012,05,23,05,21,10.10
2012,05,23,05,22,10.10
2012,05,23,05,23,10.10
2012,05,23,05,24,10.10
2012,05,23,05,25,10.10
2012,05,23,05,26,10.10
2012,05,23,05,27,10.10
2012,05,23,05,28,10.10
2012,05,23,05,29,10.10
2012,05,23,05,30,10.10
2012,05,23,05,31,10.10
2012,05,23,05,32,10.10
2012,05,23,05,33,10.10
2012,05,23,05,34,10.10
2012,05,23,05,35,10.10
2012,05,23,05,36,10.10
2012,05,23,05,37,10.10
2012,05,23,05,38,10.20
2012,05,23,05,39,10.20
2012,05,23,05,40,10.20
2012,05,23,05,41,10.20
2012,05,23,05,42,10.20
2012,05,23,05,43,10.20
2012,05,23,05,44,10.20
2012,05,23,05,45,10.30
2012,05,23,05,46,10.30
2012,05,23,05,47,10.30
2012,05,23,05,48,10.30
2012,05,23,05,49,10.30
2012,05,23,05,50,10.30
2012,05,23,05,51,10.30
2012,05,23,05,52,10.30
2012,05,23,05,53,10.30
2012,05,23,05,54,10.30
2012,05,23,05,55,10.30
2012,05,23,05,56,10.30
2012,05,23,05,57,10.30
2012,05,23,05,58,10.30
2012,05,23,05,59,10.20
2012,05,23,06,00,10.20
2012,05,23,06,01,10.20
2012,05,23,06,02,10.20
2012,05,23,06,03,10.20
2012,05,23,06,04,10.20
2012,05,23,06,05,10.20
2012,05,23,06,06,10.20
2012,05,23,06,07,10.20
2012,05,23,06,08,10.20
2012,05,23,06,09,10.20
2012,05,23,06,10,10.20
2012,05,23,06,11,10.20
2012,05,23,06,12,10.20
2012,05,23,06,13,10.20
2012,05,23,06,14,10.20
2012,05,23,06,15,10.20
2012,05,23,06,16,10.20
2012,05,23,06,17,10.20
2012,05,23,06,18,10.20
2012,05,23,06,19,10.20
2012,05,23,06,20,10.20
2012,05,23,06,21,10.20
2012,05,23,06,22,10.20
2012,05,23,06,23,10.20
2012,05,23,06,24,10.20
2012,05,23,06,25,10.20
2012,05,23,06,26,10.20
2012,05,23,06,27,10.20
2012,05,23,06,28,10.20
2012,05,23,06,29,10.20
2012,05,23,06,30,10.20
2012,05,23,06,31,10.10
2012,05,23,06,32,10.10
2012,05,23,06,33,10.10
2012,05,23,06,34,10.10
2012,05,23,06,35,10.10
2012,05,23,06,36,10.10
2012,05,23,06,37,10.10
2012,05,23,06,38,10.10
2012,05,23,06,39,10.10
2012,05,23,06,40,10.10
2012,05,23,06,41,10.10
2012,05,23,06,42,10.10
2012,05,23,06,43,10.10
2012,05,23,06,44,10.10
2012,05,23,06,45,10.10
2012,05,23,06,46,10.10
2012,05,23,06,47,10.10
2012,05,23,06,48,10.10
2012,05,23,06,49,10.10
2012,05,23,06,50,10.10
2012,05,23,06,51,10.10
2012,05,23,06,52,10.10
2012,05,23,06,53,10.10
2012,05,23,06,54,10.10
2012,05,23,06,55,10.10
2012,05,23,06,56,10.10
2012,05,23,06,57,10.10
2012,05,23,06,58,10.10
2012,05,23,06,59,10.10
2012,05,23,07,00,10.10
2012,05,23,07,01,10.10
2012,05,23,07,02,10.10
2012,05,23,07,03,10.10
2012,05,23,07,04,10.10
2012,05,23,07,05,10.10
2012,05,23,07,06,10.10
2012,05,23,07,07,10.10
2012,05,23,07,08,10.10
2012,05,23,07,09,10.20
2012,05,23,07,10,10.20
2012,05,23,07,11,10.20
2012,05,23,07,12,10.20
2012,05,23,07,13,10.20
2012,05,23,07,14,10.20
2012,05,23,07,15,10.30
2012,05,23,07,16,10.30
2012,05,23,07,17,10.30
2012,05,23,07,18,10.30
2012,05,23,07,19,10.30
2012,05,23,07,20,10.30
2012,05,23,07,21,10.30
2012,05,23,07,22,10.30
2012,05,23,07,23,10.40
2012,05,23,07,24,10.40
2012,05,23,07,25,10.40
2012,05,23,07,26,10.40
2012,05,23,07,27,10.40
2012,05,23,07,28,10.40
2012,05,23,07,29,10.40
2012,05,23,07,30,10.50
2012,05,23,07,31,10.50
2012,05,23,07,32,10.50
2012,05,23,07,33,10.50
2012,05,23,07,34,10.60
2012,05,23,07,35,10.60
2012,05,23,07,36,10.60
2012,05,23,07,37,10.60
2012,05,23,07,38,10.70
2012,05,23,07,39,10.70
2012,05,23,07,40,10.70
2012,05,23,07,41,10.70
2012,05,23,07,42,10.70
2012,05,23,07,43,10.70
2012,05,23,07,44,10.70
2012,05,23,07,45,10.70
2012,05,23,07,46,10.70
2012,05,23,07,47,10.70
2012,05,23,07,48,10.70
2012,05,23,07,49,10.70
2012,05,23,07,50,10.70
2012,05,23,07,51,10.70
2012,05,23,07,52,10.70
2012,05,23,07,53,10.70
2012,05,23,07,54,10.70
2012,05,23,07,55,10.70
2012,05,23,07,56,10.70
2012,05,23,07,57,10.70
2012,05,23,07,58,10.70
2012,05,23,07,59,10.70
2012,05,23,08,00,10.70
2012,05,23,08,01,10.70
2012,05,23,08,02,10.70
2012,05,23,08,03,10.70
2012,05,23,08,04,10.70
2012,05,23,08,05,10.80
2012,05,23,08,06,10.80
2012,05,23,08,07,10.80
2012,05,23,08,08,10.80
2012,05,23,08,09,10.80
2012,05,23,08,10,10.80
2012,05,23,08,11,10.80
2012,05,23,08,12,10.80
2012,05,23,08,13,10.80
2012,05,23,08,14,10.80
2012,05,23,08,15,10.80
2012,05,23,08,16,10.80
2012,05,23,08,17,10.90
2012,05,23,08,18,10.90
2012,05,23,08,19,10.90
2012,05,23,08,20,10.90
2012,05,23,08,21,10.90
2012,05,23,08,22,10.90
2012,05,23,08,23,10.90
2012,05,23,08,24,10.90
2012,05,23,08,25,11.00
2012,05,23,08,26,11.00
2012,05,23,08,27,11.00
2012,05,23,08,28,11.00
2012,05,23,08,29,11.00
2012,05,23,08,30,11.00
2012,05,23,08,31,11.00
2012,05,23,08,32,11.10
2012,05,23,08,33,11.10
2012,05,23,08,34,11.10
2012,05,23,08,35,11.10
2012,05,23,08,36,11.10
2012,05,23,08,37,11.10
2012,05,23,08,38,11.10
2012,05,23,08,39,11.10
2012,05,23,08,40,11.10
2012,05,23,08,41,11.10
2012,05,23,08,42,11.20
2012,05,23,08,43,11.20
2012,05,23,08,44,11.20
2012,05,23,08,45,11.20
2012,05,23,08,46,11.20
2012,05,23,08,47,11.30
2012,05,23,08,48,11.30
2012,05,23,08,49,11.30
2012,05,23,08,50,11.30
2012,05,23,08,51,11.30
2012,05,23,08,52,11.30
2012,05,23,08,53,11.30
2012,05,23,08,54,11.30
2012,05,23,08,55,11.30
2012,05,23,08,56,11.30
2012,05,23,08,57,11.30
2012,05,23,08,58,11.30
2012,05,23,08,59,11.30
2012,05,23,09,00,11.30
2012,05,23,09,01,11.30
2012,05,23,09,02,11.30
2012,05,23,09,03,11.30
2012,05,23,09,04,11.30
2012,05,23,09,05,11.30
2012,05,23,09,06,11.30
2012,05,23,09,07,11.30
2012,05,23,09,08,11.30
2012,05,23,09,09,11.30
2012,05,23,09,10,11.30
2012,05,23,09,11,11.30
2012,05,23,09,12,11.30
2012,05,23,09,13,11.30
2012,05,23,09,14,11.40
2012,05,23,09,15,11.40
2012,05,23,09,16,11.40
2012,05,23,09,17,11.50
2012,05,23,09,18,11.50
2012,05,23,09,19,11.60
2012,05,23,09,20,11.60
2012,05,23,09,21,11.60
2012,05,23,09,22,11.70
2012,05,23,09,23,11.70
2012,05,23,09,24,11.70
2012,05,23,09,25,11.70
2012,05,23,09,26,11.80
2012,05,23,09,27,11.80
2012,05,23,09,28,11.80
2012,05,23,09,29,11.80
2012,05,23,09,30,11.90
2012,05,23,09,31,11.90
2012,05,23,09,32,11.90
2012,05,23,09,33,12.00
2012,05,23,09,34,12.00
2012,05,23,09,35,12.00
2012,05,23,09,36,12.10
2012,05,23,09,37,12.10
2012,05,23,09,38,12.10
2012,05,23,09,39,12.20
2012,05,23,09,40,12.20
2012,05,23,09,41,12.20
2012,05,23,09,42,12.20
2012,05,23,09,43,12.20
2012,05,23,09,44,12.30
2012,05,23,09,45,12.30
2012,05,23,09,46,12.30
2012,05,23,09,47,12.30
2012,05,23,09,48,12.30
2012,05,23,09,49,12.30
2012,05,23,09,50,12.30
2012,05,23,09,51,12.30
2012,05,23,09,52,12.30
2012,05,23,09,53,12.30
2012,05,23,09,54,12.30
2012,05,23,09,55,12.30
2012,05,23,09,56,12.30
2012,05,23,09,57,12.40
2012,05,23,09,58,12.40
2012,05,23,09,59,12.40
2012,05,23,10,00,12.40
2012,05,23,10,01,12.40
2012,05,23,10,02,12.50
2012,05,23,10,03,12.50
2012,05,23,10,04,12.50
2012,05,23,10,05,12.50
2012,05,23,10,06,12.50
2012,05,23,10,07,12.60
2012,05,23,10,08,12.60
2012,05,23,10,09,12.60
2012,05,23,10,10,12.60
2012,05,23,10,11,12.60
2012,05,23,10,12,12.60
2012,05,23,10,13,12.70
2012,05,23,10,14,12.70
2012,05,23,10,15,12.70
2012,05,23,10,16,12.70
2012,05,23,10,17,12.70
2012,05,23,10,18,12.70
2012,05,23,10,19,12.70
2012,05,23,10,20,12.70
2012,05,23,10,21,12.70
2012,05,23,10,22,12.70
2012,05,23,10,23,12.80
2012,05,23,10,24,12.80
2012,05,23,10,25,12.80
2012,05,23,10,26,12.80
2012,05,23,10,27,12.90
2012,05,23,10,28,12.90
2012,05,23,10,29,13.00
2012,05,23,10,30,13.00
2012,05,23,10,31,13.10
2012,05,23,10,32,13.10
2012,05,23,10,33,13.10
2012,05,23,10,34,13.10
2012,05,23,10,35,13.20
2012,05,23,10,36,13.20
2012,05,23,10,37,13.20
2012,05,23,10,38,13.20
2012,05,23,10,39,13.20
2012,05,23,10,40,13.20
2012,05,23,10,41,13.10
2012,05,23,10,42,13.10
2012,05,23,10,43,13.10
2012,05,23,10,44,13.10
2012,05,23,10,45,13.10
2012,05,23,10,46,13.10
2012,05,23,10,47,13.10
2012,05,23,10,48,13.10
2012,05,23,10,49,13.10
2012,05,23,10,50,13.10
2012,05,23,10,51,13.20
2012,05,23,10,52,13.20
2012,05,23,10,53,13.30
2012,05,23,10,54,13.30
2012,05,23,10,55,13.40
2012,05,23,10,56,13.40
2012,05,23,10,57,13.50
2012,05,23,10,58,13.50
2012,05,23,10,59,13.50
2012,05,23,11,00,13.50
2012,05,23,11,01,13.60
2012,05,23,11,02,13.60
2012,05,23,11,03,13.60
2012,05,23,11,04,13.60
2012,05,23,11,05,13.60
2012,05,23,11,06,13.60
2012,05,23,11,07,13.60
2012,05,23,11,08,13.60
2012,05,23,11,09,13.60
2012,05,23,11,10,13.70
2012,05,23,11,11,13.70
2012,05,23,11,12,13.70
2012,05,23,11,13,13.70
2012,05,23,11,14,13.70
2012,05,23,11,15,13.70
2012,05,23,11,16,13.70
2012,05,23,11,17,13.80
2012,05,23,11,18,13.80
2012,05,23,11,19,13.80
2012,05,23,11,20,13.80
2012,05,23,11,21,13.80
2012,05,23,11,22,13.90
2012,05,23,11,23,13.90
2012,05,23,11,24,14.00
2012,05,23,11,25,14.10
2012,05,23,11,26,14.10
2012,05,23,11,27,14.10
2012,05,23,11,28,14.10
2012,05,23,11,29,14.20
2012,05,23,11,30,14.20
2012,05,23,11,31,14.10
2012,05,23,11,32,14.10
2012,05,23,11,33,14.10
2012,05,23,11,34,14.00
2012,05,23,11,35,14.00
2012,05,23,11,36,13.90
2012,05,23,11,37,13.90
2012,05,23,11,38,13.90
2012,05,23,11,39,13.90
2012,05,23,11,40,13.90
2012,05,23,11,41,13.90
2012,05,23,11,42,13.90
2012,05,23,11,43,13.90
2012,05,23,11,44,13.90
2012,05,23,11,45,13.90
2012,05,23,11,46,13.90
2012,05,23,11,47,13.90
2012,05,23,11,48,13.90
2012,05,23,11,49,14.00
2012,05,23,11,50,14.00
2012,05,23,11,51,14.00
2012,05,23,11,52,13.90
2012,05,23,11,53,13.90
2012,05,23,11,54,13.90
2012,05,23,11,55,13.90
2012,05,23,11,56,13.80
2012,05,23,11,57,13.90
2012,05,23,11,58,13.90
2012,05,23,11,59,13.90
2012,05,23,12,00,13.90
2012,05,23,12,01,14.00
2012,05,23,12,02,14.00
2012,05,23,12,03,14.10
2012,05,23,12,04,14.10
2012,05,23,12,05,14.10
2012,05,23,12,06,14.20
2012,05,23,12,07,14.20
2012,05,23,12,08,14.10
2012,05,23,12,09,14.00
2012,05,23,12,10,14.00
2012,05,23,12,11,14.00
2012,05,23,12,12,14.00
2012,05,23,12,13,14.10
2012,05,23,12,14,14.10
2012,05,23,12,15,14.00
2012,05,23,12,16,14.00
2012,05,23,12,17,13.90
2012,05,23,12,18,13.80
2012,05,23,12,19,13.80
2012,05,23,12,20,13.80
2012,05,23,12,21,13.70
2012,05,23,12,22,13.60
2012,05,23,12,23,13.50
2012,05,23,12,24,13.50
2012,05,23,12,25,13.50
2012,05,23,12,26,13.50
2012,05,23,12,27,13.50
2012,05,23,12,28,13.50
2012,05,23,12,29,13.50
2012,05,23,12,30,13.50
2012,05,23,12,31,13.60
2012,05,23,12,32,13.60
2012,05,23,12,33,13.60
2012,05,23,12,34,13.70
2012,05,23,12,35,13.80
2012,05,23,12,36,13.80
2012,05,23,12,37,13.80
2012,05,23,12,38,13.90
2012,05,23,12,39,14.00
2012,05,23,12,40,14.10
2012,05,23,12,41,14.20
2012,05,23,12,42,14.30
2012,05,23,12,43,14.40
2012,05,23,12,44,14.50
2012,05,23,12,45,14.60
2012,05,23,12,46,14.70
2012,05,23,12,47,14.80
2012,05,23,12,48,14.90
2012,05,23,12,49,15.00
2012,05,23,12,50,15.00
2012,05,23,12,51,15.10
2012,05,23,12,52,15.30
2012,05,23,12,53,15.40
2012,05,23,12,54,15.50
2012,05,23,12,55,15.60
2012,05,23,12,56,15.60
2012,05,23,12,57,15.60
2012,05,23,12,58,15.60
2012,05,23,12,59,15.60
2012,05,23,13,00,15.50
2012,05,23,13,01,15.50
2012,05,23,13,02,15.40
2012,05,23,13,03,15.40
2012,05,23,13,04,15.40
2012,05,23,13,05,15.30
2012,05,23,13,06,15.30
2012,05,23,13,07,15.10
2012,05,23,13,08,15.00
2012,05,23,13,09,15.00
2012,05,23,13,10,15.00
2012,05,23,13,11,15.00
2012,05,23,13,12,15.00
2012,05,23,13,13,15.00
2012,05,23,13,14,15.00
2012,05,23,13,15,15.00
2012,05,23,13,16,15.00
2012,05,23,13,17,15.00
2012,05,23,13,18,15.00
2012,05,23,13,19,15.00
2012,05,23,13,20,15.00
2012,05,23,13,21,15.00
2012,05,23,13,22,15.00
2012,05,23,13,23,15.00
2012,05,23,13,24,15.00
2012,05,23,13,25,15.00
2012,05,23,13,26,15.00
2012,05,23,13,27,15.00
2012,05,23,13,28,15.00
2012,05,23,13,29,14.90
2012,05,23,13,30,14.80
2012,05,23,13,31,14.70
2012,05,23,13,32,14.70
2012,05,23,13,33,14.60
2012,05,23,13,34,14.60
2012,05,23,13,35,14.50
2012,05,23,13,36,14.50
2012,05,23,13,37,14.40
2012,05,23,13,38,14.40
2012,05,23,13,39,14.30
2012,05,23,13,40,14.30
2012,05,23,13,41,14.30
2012,05,23,13,42,14.30
2012,05,23,13,43,14.40
2012,05,23,13,44,14.40
2012,05,23,13,45,14.50
2012,05,23,13,46,14.50
2012,05,23,13,47,14.70
2012,05,23,13,48,14.80
2012,05,23,13,49,14.80
2012,05,23,13,50,14.80
2012,05,23,13,51,14.80
2012,05,23,13,52,14.90
2012,05,23,13,53,15.00
2012,05,23,13,54,15.00
2012,05,23,13,55,15.00
2012,05,23,13,56,15.00
2012,05,23,13,57,15.00
2012,05,23,13,58,15.00
2012,05,23,13,59,15.00
2012,05,23,14,00,15.00
2012,05,23,14,01,15.00
2012,05,23,14,02,15.00
2012,05,23,14,03,15.00
2012,05,23,14,04,15.00
2012,05,23,14,05,15.00
2012,05,23,14,06,15.00
2012,05,23,14,07,15.00
2012,05,23,14,08,15.00
2012,05,23,14,09,15.00
2012,05,23,14,10,15.00
2012,05,23,14,11,15.00
2012,05,23,14,12,15.20
2012,05,23,14,13,15.20
2012,05,23,14,14,15.30
2012,05,23,14,15,15.30
2012,05,23,14,16,15.30
2012,05,23,14,17,15.40
2012,05,23,14,18,15.50
2012,05,23,14,19,15.60
2012,05,23,14,20,15.70
2012,05,23,14,21,15.80
2012,05,23,14,22,15.90
2012,05,23,14,23,16.00
2012,05,23,14,24,16.00
2012,05,23,14,25,16.10
2012,05,23,14,26,16.10
2012,05,23,14,27,16.00
2012,05,23,14,28,16.00
2012,05,23,14,29,16.10
2012,05,23,14,30,16.10
2012,05,23,14,31,16.10
2012,05,23,14,32,16.00
2012,05,23,14,33,16.00
2012,05,23,14,34,16.00
2012,05,23,14,35,16.00
2012,05,23,14,36,15.90
2012,05,23,14,37,15.90
2012,05,23,14,38,15.90
2012,05,23,14,39,15.80
2012,05,23,14,40,15.80
2012,05,23,14,41,15.90
2012,05,23,14,42,16.00
2012,05,23,14,43,16.10
2012,05,23,14,44,16.20
2012,05,23,14,45,16.20
2012,05,23,14,46,16.30
2012,05,23,14,47,16.30
2012,05,23,14,48,16.30
2012,05,23,14,49,16.30
2012,05,23,14,50,16.20
2012,05,23,14,51,16.20
2012,05,23,14,52,16.20
2012,05,23,14,53,16.20
2012,05,23,14,54,16.10
2012,05,23,14,55,16.00
2012,05,23,14,56,15.80
2012,05,23,14,57,15.60
2012,05,23,14,58,15.40
2012,05,23,14,59,15.30
2012,05,23,15,00,15.30
2012,05,23,15,01,15.30
2012,05,23,15,02,15.40
2012,05,23,15,03,15.50
2012,05,23,15,04,15.50
2012,05,23,15,05,15.60
2012,05,23,15,06,15.60
2012,05,23,15,07,15.70
2012,05,23,15,08,15.70
2012,05,23,15,09,15.90
2012,05,23,15,10,16.00
2012,05,23,15,11,16.10
2012,05,23,15,12,16.20
2012,05,23,15,13,16.20
2012,05,23,15,14,16.20
2012,05,23,15,15,16.20
2012,05,23,15,16,16.20
2012,05,23,15,17,16.20
2012,05,23,15,18,16.20
2012,05,23,15,19,16.20
2012,05,23,15,20,16.20
2012,05,23,15,21,16.20
2012,05,23,15,22,16.20
2012,05,23,15,23,16.20
2012,05,23,15,24,16.20
2012,05,23,15,25,16.20
2012,05,23,15,26,16.10
2012,05,23,15,27,16.00
2012,05,23,15,28,16.00
2012,05,23,15,29,15.90
2012,05,23,15,30,15.90
2012,05,23,15,31,15.80
2012,05,23,15,32,15.70
2012,05,23,15,33,15.70
2012,05,23,15,34,15.70
2012,05,23,15,35,15.70
2012,05,23,15,36,15.70
2012,05,23,15,37,15.70
2012,05,23,15,38,15.60
2012,05,23,15,39,15.60
2012,05,23,15,40,15.50
2012,05,23,15,41,15.50
2012,05,23,15,42,15.50
2012,05,23,15,43,15.50
2012,05,23,15,44,15.50
2012,05,23,15,45,15.60
2012,05,23,15,46,15.60
2012,05,23,15,47,15.70
2012,05,23,15,48,15.70
2012,05,23,15,49,15.70
2012,05,23,15,50,15.80
2012,05,23,15,51,15.80
2012,05,23,15,52,15.80
2012,05,23,15,53,15.80
2012,05,23,15,54,15.80
2012,05,23,15,55,15.70
2012,05,23,15,56,15.70
2012,05,23,15,57,15.70
2012,05,23,15,58,15.60
2012,05,23,15,59,15.50
2012,05,23,16,00,15.40
2012,05,23,16,01,15.30
2012,05,23,16,02,15.30
2012,05,23,16,03,15.30
2012,05,23,16,04,15.20
2012,05,23,16,05,15.20
2012,05,23,16,06,15.20
2012,05,23,16,07,15.20
2012,05,23,16,08,15.30
2012,05,23,16,09,15.20
2012,05,23,16,10,15.20
2012,05,23,16,11,15.10
2012,05,23,16,12,15.10
2012,05,23,16,13,15.10
2012,05,23,16,14,15.10
2012,05,23,16,15,15.20
2012,05,23,16,16,15.20
2012,05,23,16,17,15.10
2012,05,23,16,18,15.10
2012,05,23,16,19,15.20
2012,05,23,16,20,15.10
2012,05,23,16,21,15.10
2012,05,23,16,22,15.10
2012,05,23,16,23,15.20
2012,05,23,16,24,15.10
2012,05,23,16,25,15.00
2012,05,23,16,26,15.00
2012,05,23,16,27,15.00
2012,05,23,16,28,15.00
2012,05,23,16,29,15.00
2012,05,23,16,30,15.00
2012,05,23,16,31,15.00
2012,05,23,16,32,15.00
2012,05,23,16,33,15.00
2012,05,23,16,34,15.00
2012,05,23,16,35,15.10
2012,05,23,16,36,15.20
2012,05,23,16,37,15.30
2012,05,23,16,38,15.40
2012,05,23,16,39,15.50
2012,05,23,16,40,15.50
2012,05,23,16,41,15.60
2012,05,23,16,42,15.70
2012,05,23,16,43,15.70
2012,05,23,16,44,15.70
2012,05,23,16,45,15.80
2012,05,23,16,46,15.80
2012,05,23,16,47,15.80
2012,05,23,16,48,15.70
2012,05,23,16,49,15.70
2012,05,23,16,50,15.70
2012,05,23,16,51,15.70
2012,05,23,16,52,15.70
2012,05,23,16,53,15.70
2012,05,23,16,54,15.60
2012,05,23,16,55,15.50
2012,05,23,16,56,15.50
2012,05,23,16,57,15.40
2012,05,23,16,58,15.40
2012,05,23,16,59,15.30
2012,05,23,17,00,15.30
2012,05,23,17,01,15.30
2012,05,23,17,02,15.30
2012,05,23,17,03,15.30
2012,05,23,17,04,15.30
2012,05,23,17,05,15.20
2012,05,23,17,06,15.20
2012,05,23,17,07,15.20
2012,05,23,17,08,15.20
2012,05,23,17,09,15.10
2012,05,23,17,10,15.10
2012,05,23,17,11,15.00
2012,05,23,17,12,15.00
2012,05,23,17,13,15.00
2012,05,23,17,14,15.00
2012,05,23,17,15,15.00
2012,05,23,17,16,15.00
2012,05,23,17,17,15.00
2012,05,23,17,18,15.00
2012,05,23,17,19,15.00
2012,05,23,17,20,14.90
2012,05,23,17,21,14.80
2012,05,23,17,22,14.80
2012,05,23,17,23,14.80
2012,05,23,17,24,14.70
2012,05,23,17,25,14.70
2012,05,23,17,26,14.60
2012,05,23,17,27,14.60
2012,05,23,17,28,14.60
2012,05,23,17,29,14.50
2012,05,23,17,30,14.50